Aérodrome :
LOGIN :

S'inscrire | Disclaimer

   EN    FR    IT 

 










Légende :    VFR   VFR Marginal   IFR   IFR Intensif   IFR Très Intensif
Visi : 
Plafond : 
>= 8 km
>= 3000ft
5 à 8 km
1000 à 3000 ft
1500m à 5 km
500 à 1000 ft
800 à 1500m
200 à 500 ft
< 800m
< 200 ft
Symboles :   Orages  Brouillard  Fortes neiges  Fortes précipitations  Vent > 20 kt
SIGMETs :   Divers  Orages  Givrage  Turbulence  Onde Orograph.  Cendres Volcan.







- Altitude de l'aérodrome : 330 ft
- Code IATA : LVA
- Voir les cartes d'approche


LFOV - Laval-Entrammes

DERNIER METAR :
  • 230430Z AUTO 30003KT 9999 FEW007 SCT068 OVC088 03/02 Q0997

METARs EXPIRÉS :
  • 230400Z AUTO 35007KT 9999 -RA BKN008 BKN015 OVC052 03/02 Q0997
  • 230330Z AUTO 33005KT 9999 -DZ SCT017 SCT045 BKN054 03/03 Q0998
  • 230300Z AUTO 31004KT 9999 FEW019 BKN033 BKN047 04/03 Q0997
  • 230230Z AUTO 30005KT 270V330 9999 -RA BKN019/// BKN026/// OVC032/// ///TCU 04/03 Q0998
  • 230200Z AUTO 30006KT 270V340 9999 -RADZ SCT020 BKN026 BKN037 04/03 Q0998

TAF N/A
Pas de NOTAMs connus pour ce terrain.



MET'MAP, la Météo Aéronautique d'un coup d'oeil ! - Copyright ORBIFLY Décembre 2007 - Disclaimer

ORBIFLY MET'MAP TEAM :

Programmation & Développement : Alexandra Zaïnal
Conception & Développement : Baudouin d'Aumeries
Co-Programmation & Développement : Marc-Olivier Méhu
Soutien technique & logistique : Manuel Goepfert

Contact : metmap@orbifly.com




SOURCES & CREDITS :

   NOAA